This demonstration page uses our WeatherBlox Daily Observations layout. Learn more.

Left ArrowRight Arrow

Hourly Observations for May 28, 2022

Temp ( °F °C ) Dew Point ( °F °C ) Humidity (%) Winds ( mph kmh ) Pressure ( in mb ) Visibility ( mi km ) Precip ( " mm )
12:56 am 00:56 undefined 65 18.6 55 12.8 69 69 SE 6 9 29.85 1011 10 16 0.00 0.00
1:56 am 01:56 Clear 64 17.5 55 12.6 73 73 ESE 5 7 29.83 1010 10 16 0.00 0.00
2:56 am 02:56 Mostly Cloudy 63 17.1 55 12.6 75 75 E 5 7 29.83 1010 10 16 0.00 0.00
3:56 am 03:56 Mostly Clear 63 17.1 55 12.8 76 76 SE 12 19 29.80 1009 10 16 0.00 0.00
4:56 am 04:56 Clear 65 18.4 55 13 71 71 SSE 12 19 29.75 1008 10 16 0.00 0.00
5:56 am 05:56 Sunny 64 18 56 13.1 73 73 S 15 24 29.76 1008 10 16 0.00 0.00
6:56 am 06:56 Sunny 64 18 56 13.1 73 73 SSE 14 22 29.74 1007 10 16 0.00 0.00
7:56 am 07:56 Sunny 67 19.3 56 13.5 69 69 SSE 13 20 29.73 1007 10 16 0.00 0.00
8:56 am 08:56 Partly Cloudy 69 20.3 58 14.2 68 68 SSE 10 17 29.73 1007 10 16 0.00 0.00
9:56 am 09:56 Sunny 73 22.5 58 14.3 60 60 S 13 20 29.74 1007 10 16 0.00 0.00
10:56 am 10:56 Sunny 75 24 59 14.9 57 57 S 8 13 29.71 1006 10 16 0.00 0.00
11:56 am 11:56 Sunny 78 25.8 60 15.8 54 54 S 9 15 29.69 1006 10 16 0.00 0.00
12:56 pm 12:56 Sunny 82 27.7 62 16.6 51 51 S 12 19 29.67 1005 10 16 0.00 0.00
1:56 pm 13:56 Sunny 85 29.4 62 16.9 47 47 S 14 22 29.64 1004 10 16 0.00 0.00
2:56 pm 14:56 Sunny 86 30.2 63 17.3 46 46 SSE 13 20 29.61 1003 10 16 0.00 0.00
3:56 pm 15:56 Sunny 87 30.6 63 17.3 45 45 SSE 16 26 29.59 1002 10 16 0.00 0.00
4:56 pm 16:56 Sunny 88 31.3 62 16.8 42 42 S 16 26 29.56 1001 10 16 0.00 0.00
5:56 pm 17:56 Sunny 87 30.7 62 16.7 43 43 SSE 20 31 29.54 1001 10 16 0.00 0.00
6:56 pm 18:56 Sunny 85 29.7 62 16.8 46 46 SSE 16 26 29.54 1000 10 16 0.00 0.00
7:56 pm 19:56 Sunny 82 27.7 62 16.9 52 52 SSE 14 22 29.54 1000 10 16 0.00 0.00
8:56 pm 20:56 Clear 80 26.4 62 16.6 55 55 SSE 13 20 29.55 1001 10 16 0.00 0.00
9:56 pm 21:56 Clear 78 25.3 62 16.7 59 59 SSE 14 22 29.55 1001 10 16 0.00 0.00
10:56 pm 22:56 Clear 77 24.9 62 16.6 60 60 SSE 16 26 29.54 1001 10 16 0.00 0.00
11:56 pm 23:56 Clear 76 24.4 62 16.6 62 62 SSE 18 30 29.52 1000 10 16 0.00 0.00

Powered by AerisWeather